Regional Weather Roundup
Issued by NWS Tiyan, Guam

Home | Current Version | Previous Version | Text Only | Print | Product List | Glossary On
Versions: 1 2 3 4 5 6 7 8 9 10 11 12 13 14 15 16 17 18 19 20 21 22 23 24 25 26 27
000
ASGM40 PGUM 220812
RWRGUM
WEATHER ROUNDUP FOR THE MARIANAS
NATIONAL WEATHER SERVICE TIYAN GU
600 PM CHST SAT JUL 22 2017

GUZ001>004-220900-
MARIANA ISLANDS-

CITY           SKY/WX    TMP DP  RH WIND       PRES   REMARKS
GUAM AIRPORT   SUNNY     84  79  84 E8        29.84R HX  96
ANDERSEN AFB   MOSUNNY   82  75  78 E8        29.86R
ROTA AIRPORT   PTSUNNY   86  77  74 E13       29.84R HX  97
TINIAN AP      MOSUNNY   81  77  89 NE6       29.83R
SAIPAN AP      PTSUNNY   84  79  84 E6        29.84R HX  96

$$





USA.gov is the U.S. government's official web portal to all federal, state and local government web resources and services.